Regional Weather Roundup
Issued by NWS

Home | Current Version | Previous Version | Graphics & Text | Print | Product List | Glossary On
Versions: 1 2 3 4 5 6 7 8 9 10 11 12 13 14 15 16 17 18 19 20 21 22 23 24 25 26 27 28 29 30 31 32 33 34 35 36 37 38 39 40 41 42 43 44 45 46 47 48 49 50
000
ASUS43 KOAX 240002
RWRNE

WEATHER ROUNDUP FOR NEBRASKA
NATIONAL WEATHER SERVICE OMAHA NE
700 PM CDT TUE AUG 23 2016

NOTES: SATELLITE DATA IS BEING USED TO AUGMENT CLOUD COVER ABOVE
       12000 FEET.
       "FAIR" INDICATES FEW OR NO CLOUDS BELOW 12,000 FEET WITH NO
       SIGNIFICANT WEATHER AND/OR OBSTRUCTIONS TO VISIBILITY.

  * THESE STATIONS DO NOT REPORT WEATHER SUCH AS RAIN...SNOW OR FOG.

NEZ001>004-019>022-054>056-240100-
NEBRASKA PANHANDLE

CITY           SKY/WX    TMP DP  RH WIND       PRES   REMARKS
SCOTTSBLUFF    PTSUNNY   83  41  22 NE8       29.99R
6HR MIN TEMP:  81; 6HR MAX TEMP:  88;

ALLIANCE       MOSUNNY   78  36  21 NE13      29.99R
6HR MIN TEMP:  78; 6HR MAX TEMP:  87;

CHADRON        PTSUNNY   83  26  12 E16       29.97R
6HR MIN TEMP:  83; 6HR MAX TEMP:  89;

KIMBALL        MOSUNNY   77  37  24 NE10      30.05R
SIDNEY         MOSUNNY   81  30  15 NE13      30.02S
6HR MIN TEMP:  81; 6HR MAX TEMP:  88;

$$

NEZ057>060-069>072-079>082-240100-
SOUTHWEST NEBRASKA

CITY           SKY/WX    TMP DP  RH WIND       PRES   REMARKS
NORTH PLATTE   MOSUNNY   85  47  26 N12       29.88R
6HR MIN TEMP:  85; 6HR MAX TEMP:  92;

IMPERIAL       SUNNY     85  43  22 N12       29.92R
6HR MIN TEMP:  85; 6HR MAX TEMP:  93;

LEXINGTON      SUNNY     86  68  54 NE3       29.83S
MCCOOK         SUNNY     92  52  25 NW5       29.83R
6HR MIN TEMP:  84; 6HR MAX TEMP:  94;

OGALLALA       SUNNY     87  33  14 N13G20    29.94R
$$

NEZ005>010-023>029-035>040-094-240100-
NORTH CENTRAL NEBRASKA

CITY           SKY/WX    TMP DP  RH WIND       PRES   REMARKS
VALENTINE      SUNNY     83  41  22 N13       29.90R
6HR MIN TEMP:  83; 6HR MAX TEMP:  87;

AINSWORTH      SUNNY     81  50  34 NW14G21   29.88S
BROKEN BOW     MOSUNNY   82  57  42 N14       29.84R
6HR MIN TEMP:  80; 6HR MAX TEMP:  87;

O`NEILL        CLOUDY    87  58  37 NW8       29.81R
ORD            SUNNY     86  66  51 S3        29.79S
6HR MIN TEMP:  79; 6HR MAX TEMP:  88;

THEDFORD       SUNNY     83  48  29 N15       29.91S
$$

NEZ041-046>049-061>064-073>077-083>087-240100-
SOUTH CENTRAL NEBRASKA

CITY           SKY/WX    TMP DP  RH WIND       PRES   REMARKS
GRAND ISLAND   CLOUDY    91  70  49 S8        29.79S HX  96
6HR MIN TEMP:  84; 6HR MAX TEMP:  93;

AURORA         CLOUDY    83  71  66 SE13      29.79S THUNDER
HASTINGS       CLOUDY    88  69  53 S7        29.80S HX  92
6HR MIN TEMP:  84; 6HR MAX TEMP:  92;

HEBRON         MOSUNNY   85  71  63 S14G20    29.80F HX  90
HOLDREGE       SUNNY     86  69  55 N3        29.82R HX  90
KEARNEY *      SUNNY     91  66  43 W6        29.79S HX  94
$$

NEZ011>018-030>034-042>045-240100-
NORTHEAST NEBRASKA

CITY           SKY/WX    TMP DP  RH WIND       PRES   REMARKS
NORFOLK        MOSUNNY   85  72  65 S7        29.77F HX  91
6HR MIN TEMP:  68; 6HR MAX TEMP:  87;

ALBION         SUNNY     86  72  62 S3        29.79F HX  92
BLAIR          TSTM      79  73  80 SE12      29.81F
FREMONT        PTSUNNY   81  75  82 SE10      29.77F
TEKAMAH        CLOUDY    81  74  79 S8        29.78F
6HR MIN TEMP:  77; 6HR MAX TEMP:  84;

WAYNE          PTSUNNY   83  77  80 S7        29.78F THUNDER HX  92
$$

NEZ050>053-065>068-078-088>093-240100-
SOUTHEAST NEBRASKA

CITY           SKY/WX    TMP DP  RH WIND       PRES   REMARKS
LINCOLN        SUNNY     87  72  60 S18G28    29.79F HX  93
6HR MIN TEMP:  83; 6HR MAX TEMP:  91;

OMAHA EPPLEY   TSTM      80  74  81 SE12      29.80F
6HR MIN TEMP:  77; 6HR MAX TEMP:  86; 6HR PCP:  0.09;

BEATRICE       MOSUNNY   86  72  63 S18       29.82F HX  92
FALLS CITY     CLOUDY    85  71  63 S9        29.88R HX  90
6HR MIN TEMP:  81; 6HR MAX TEMP:  89;

NEBRASKA CITY  MOSUNNY   84  73  69 S18G25    29.83F
PLATTSMOUTH    MOSUNNY   83  76  78 SE13      29.83R HX  91
$$

NEZ044-045-051>053-067-240100-
OMAHA AREA

CITY           SKY/WX    TMP DP  RH WIND       PRES   REMARKS
OMAHA EPPLEY   TSTM      80  74  81 SE12      29.80F
6HR MIN TEMP:  77; 6HR MAX TEMP:  86; 6HR PCP:  0.09;

BLAIR          TSTM      79  73  80 SE12      29.81F
FREMONT        PTSUNNY   81  75  82 SE10      29.77F
MILLARD        PTSUNNY   81  74  81 SE13G18   29.78F
OFFUTT AFB     PTSUNNY   82  75  79 SE18      29.79F
PLATTSMOUTH    MOSUNNY   83  76  78 SE13      29.83R HX  91
WAHOO          MOCLDY    86  73  65 S9        29.78F HX  93
$$




USA.gov is the U.S. government's official web portal to all federal, state and local government web resources and services.